Wind_Speed
54 56 56 56 55 56 57 59 59 59 59 59 58 58 58 59 59 59 60 60 60 60 60 61 61 61 62 62 61 61 60 59 57 56 56 56 57 58 58 57 58 59 60 60 60 61 62 62 61 61 61 61 61 62 62 62 62 61 62 62 62 62 62 62 62 62 62 63 64 64 63 62 62 62 62 63 63 63 64 65 65 65 66 66 67
56 57 59 60 60 60 62 64 64 63 62 62 62 62 61 60 61 62 62 61 61 61 61 61 62 62 63 63 64 64 64 63 61 59 57 57 58 59 59 59 60 61 62 62 62 62 62 61 61 61 61 61 61 62 63 64 64 65 65 65 65 64 64 64 64 63 63 63 65 66 66 66 65 65 65 64 64 64 65 66 67 67 68 68 68
57 59 60 61 63 65 66 67 69 68 66 66 67 65 63 62 63 64 64 63 63 62 61 62 63 63 64 65 66 67 66 66 64 62 60 59 60 61 61 61 61 61 62 62 63 62 62 61 62 62 62 61 62 63 64 65 66 66 67 67 67 67 67 66 66 65 65 66 67 68 69 69 68 67 66 66 66 66 66 67 67 67 67 67 66
60 61 62 63 65 66 67 68 71 72 71 70 70 69 66 65 64 64 65 65 65 64 64 64 65 65 66 67 68 69 69 68 67 65 63 62 62 63 63 64 63 62 62 62 63 62 61 62 63 63 63 63 63 65 66 66 67 68 68 68 68 68 68 68 67 68 68 68 69 70 71 71 70 69 67 67 67 67 68 68 67 66 65 64 64
64 64 65 66 67 68 68 69 71 72 73 74 73 72 71 68 66 66 67 68 68 68 68 68 68 68 68 68 69 70 71 70 69 66 65 64 65 65 66 67 67 64 62 61 62 61 62 63 64 65 64 64 64 66 66 67 67 68 68 68 68 68 68 68 69 69 69 69 70 70 70 69 69 68 67 67 66 66 65 64 63 62 61 62 62
71 69 68 68 68 68 69 69 70 71 73 76 76 76 74 73 71 70 71 72 72 72 72 73 72 71 69 68 67 68 69 69 68 67 65 64 66 67 69 70 70 67 63 61 61 62 62 64 66 67 66 65 66 67 67 68 68 69 69 69 68 68 68 68 69 69 69 68 67 66 66 66 67 67 67 65 63 62 60 59 59 60 60 60 61
75 74 74 72 70 69 68 69 70 72 74 77 79 80 79 78 77 76 75 75 76 76 77 77 76 73 69 65 63 64 65 66 66 66 65 65 66 69 71 71 71 68 65 62 62 62 63 65 66 67 66 67 68 68 69 69 70 70 70 70 68 67 67 67 67 66 65 64 63 63 63 64 65 65 63 61 60 59 59 59 58 58 58 58 60
78 78 78 78 76 73 71 70 70 71 72 75 77 81 83 84 83 83 82 80 80 80 80 80 79 75 69 64 62 62 63 63 63 63 63 65 66 67 69 70 71 70 67 65 64 63 64 65 66 66 66 67 69 70 70 70 70 70 70 69 67 67 67 66 65 63 62 60 60 61 62 62 62 61 60 59 58 58 58 58 57 57 57 58 61
78 78 79 80 80 78 76 74 73 73 73 74 75 78 81 84 85 86 86 86 85 83 82 82 81 75 68 65 65 64 63 62 62 62 64 65 66 67 69 70 72 72 70 69 67 65 64 63 64 65 65 67 68 68 67 67 68 68 68 67 67 66 66 64 62 60 59 58 58 59 60 60 59 59 59 59 58 57 58 59 61 61 61 62 65
75 76 78 79 80 80 80 79 79 78 79 79 80 80 81 82 83 85 87 87 85 83 81 82 80 74 69 68 69 68 67 65 64 64 66 67 69 70 70 71 72 72 72 72 70 67 64 62 62 62 63 64 65 64 64 65 66 67 67 67 66 65 63 61 60 58 57 56 57 58 58 58 58 59 59 59 58 57 60 62 63 64 65 67 69
73 76 78 79 81 82 82 82 83 83 83 83 83 84 84 84 83 83 84 84 81 80 80 79 77 73 71 72 71 70 68 66 65 65 66 68 70 71 71 70 71 72 73 72 70 66 62 60 60 61 62 63 63 63 64 66 67 67 66 65 64 62 60 58 58 56 56 57 57 58 58 58 58 59 59 58 57 58 60 62 64 66 67 70 71
72 74 77 79 82 84 85 85 86 86 86 85 85 85 86 86 85 84 83 82 79 78 78 78 77 76 75 74 72 69 67 66 66 66 67 69 71 72 72 71 70 71 72 70 67 63 60 59 61 62 63 64 64 65 66 67 68 67 65 62 59 57 56 56 56 55 56 57 58 60 60 59 59 60 60 59 59 60 63 65 67 69 70 72 73
75 74 75 77 80 84 86 88 88 87 87 86 86 86 85 86 87 87 85 83 80 77 77 78 78 78 77 74 71 68 66 66 67 67 68 70 72 73 73 71 70 70 69 66 63 61 60 61 63 64 64 64 65 66 67 67 66 63 60 57 54 54 54 55 55 56 57 59 60 61 62 61 60 61 62 62 62 63 66 68 71 72 73 74 75
78 77 76 77 79 81 85 87 88 88 86 85 84 85 83 83 85 88 88 86 83 80 78 78 78 77 75 73 71 68 67 68 69 69 70 72 74 74 74 71 68 67 64 61 60 60 61 62 63 63 63 63 65 66 66 65 62 59 57 54 53 54 55 55 56 57 59 60 61 63 63 62 62 64 65 65 66 67 69 71 73 75 75 75 77
83 80 79 78 79 80 83 85 87 87 85 83 82 82 83 82 82 86 88 88 86 82 79 77 75 73 72 70 69 68 68 70 71 72 73 74 74 74 74 71 68 64 60 58 58 59 60 61 61 59 59 62 63 63 64 63 60 58 56 55 55 55 56 57 58 58 59 61 62 63 64 64 66 67 68 69 70 71 74 75 77 78 77 77 79
85 83 81 80 80 80 81 83 86 86 86 84 82 82 83 82 82 83 84 84 83 79 76 75 73 71 69 68 68 68 69 71 72 73 74 75 75 76 75 72 67 61 57 56 58 60 61 61 59 56 57 60 62 62 63 62 60 58 57 57 58 58 57 58 59 59 60 61 62 63 65 67 68 70 71 74 75 76 76 77 78 79 79 80 82
86 84 83 81 81 81 81 82 83 84 84 84 83 83 84 83 82 81 81 80 78 77 75 73 72 71 69 69 69 69 71 74 74 73 74 76 77 76 74 70 64 58 55 56 59 61 61 60 58 56 57 61 64 64 64 63 61 59 59 61 61 61 60 61 61 61 61 62 64 65 67 69 71 73 75 76 76 76 75 76 79 81 81 83 84
90 87 85 83 83 83 83 83 83 82 80 79 80 81 82 82 81 80 79 78 76 74 73 72 72 72 72 72 71 71 72 74 74 73 75 77 76 74 71 68 63 57 56 59 61 60 59 57 56 55 57 63 68 68 66 64 63 62 63 65 65 64 63 64 64 64 65 65 67 68 70 71 72 73 74 74 74 74 76 78 82 83 83 86 88
95 91 88 86 85 85 86 86 87 85 79 76 76 77 78 79 79 79 79 79 77 76 75 74 73 74 74 74 73 72 72 73 75 76 76 73 70 67 65 63 60 58 59 62 62 60 59 58 57 55 58 65 70 70 67 66 66 66 66 67 68 67 66 66 67 68 68 69 71 72 73 73 73 73 72 73 75 77 80 82 83 83 85 89 92
96 94 93 90 89 88 87 87 88 86 81 77 75 75 76 77 77 78 78 79 80 81 80 78 76 76 76 75 75 74 74 75 78 78 73 68 65 62 59 59 59 60 62 64 63 63 63 63 62 61 62 65 68 69 69 69 71 72 70 69 68 68 68 68 70 70 70 72 73 74 74 75 74 73 73 75 78 80 82 83 83 85 89 92 95
90 91 91 90 89 88 87 85 83 81 80 78 75 74 73 74 74 75 76 78 80 81 80 78 76 76 77 76 75 75 74 75 76 74 72 71 69 65 61 60 60 62 65 65 65 65 64 64 64 64 65 65 66 68 69 71 74 75 73 69 68 68 68 70 72 72 72 74 75 75 75 75 75 75 75 77 78 79 81 83 85 89 92 93 95
85 85 86 87 86 85 85 82 78 76 77 77 76 73 71 71 72 73 75 77 79 80 79 76 73 74 74 74 73 73 73 73 72 69 69 70 69 67 65 64 63 65 68 68 66 65 64 63 63 64 66 67 67 67 67 67 69 71 71 70 69 68 69 71 72 73 73 74 75 75 75 76 76 76 76 77 78 79 82 85 88 90 92 93 94
85 83 83 83 84 84 83 81 77 76 77 78 77 75 73 72 71 72 74 76 79 81 80 77 73 71 72 71 71 71 71 71 71 70 70 69 69 67 65 63 63 67 70 70 68 67 66 64 64 64 66 67 65 63 62 62 63 65 67 68 68 69 69 70 71 72 73 74 74 75 76 76 76 76 76 77 80 82 85 87 89 90 90 91 91
88 85 83 83 83 84 84 83 80 79 79 80 79 76 74 73 73 72 72 74 77 80 81 80 76 73 71 71 71 71 71 72 72 72 72 72 71 68 63 60 62 67 70 70 69 67 66 65 64 64 65 65 64 62 62 64 64 65 66 67 68 69 70 70 71 73 74 75 75 76 76 76 76 77 78 80 82 84 86 87 88 88 88 88 87
90 88 86 85 84 85 85 85 84 82 82 82 82 80 78 77 76 75 74 74 76 78 79 80 79 76 72 70 68 68 69 70 71 71 71 71 69 67 64 62 64 67 69 68 66 65 64 62 62 63 65 66 65 64 64 65 65 66 67 68 69 70 71 72 74 75 76 76 76 76 76 76 77 78 80 82 84 85 85 86 86 85 86 86 84
102 101 99 96 91 88 86 86 86 85 84 84 85 84 83 81 79 77 76 76 76 77 77 76 75 73 70 68 66 65 65 68 69 69 69 68 67 66 64 63 64 66 67 66 65 65 64 62 62 64 66 66 65 65 65 67 68 69 69 69 69 71 73 75 77 78 77 76 76 76 78 79 80 81 83 85 85 85 85 85 84 83 83 83 80
113 115 115 112 105 96 90 87 88 88 86 86 86 85 84 82 79 77 76 76 77 77 76 73 71 69 67 66 66 65 66 67 68 68 67 67 67 66 64 62 63 65 67 66 65 64 65 66 67 67 66 66 67 68 69 70 70 70 69 70 72 75 77 79 80 79 77 77 77 79 81 82 84 85 87 87 86 85 85 84 82 81 81 81 78
108 111 113 114 113 107 98 90 88 89 89 88 87 85 82 80 79 78 78 79 80 81 80 79 77 75 74 73 73 72 71 70 69 70 70 70 70 70 67 66 66 68 70 69 67 66 67 70 70 69 67 67 68 70 71 70 70 70 71 73 76 78 80 80 80 79 78 79 81 83 84 85 86 87 87 86 85 83 82 81 80 80 80 79 77
101 102 103 106 109 110 106 98 92 90 91 90 88 85 83 82 81 79 79 80 83 85 85 84 83 81 81 81 81 80 79 76 75 74 73 73 73 73 73 72 72 72 72 70 68 66 67 69 69 69 69 69 70 71 72 72 72 73 74 76 78 79 80 79 79 80 82 84 85 86 86 86 86 86 85 83 81 79 78 78 78 79 79 78 75
99 98 98 100 102 105 107 106 101 96 94 92 90 86 86 86 86 84 82 82 84 86 87 87 87 85 83 82 82 81 80 79 78 78 76 75 74 74 75 76 75 73 71 70 67 66 65 65 67 68 69 71 73 74 75 75 76 76 76 76 77 78 78 79 80 82 84 85 86 86 86 85 83 83 81 79 77 75 75 76 77 78 78 75 72
98 97 96 96 97 99 102 105 106 104 100 96 92 88 86 87 88 87 86 85 86 87 87 87 87 86 83 81 80 78 77 77 79 80 78 76 75 75 75 75 73 71 69 68 67 66 66 66 67 69 71 74 76 78 78 77 76 74 73 74 75 76 78 79 80 82 84 84 84 83 82 81 80 79 77 75 73 73 73 75 77 77 75 73 71
96 95 94 94 95 96 97 99 103 106 106 104 100 95 91 90 90 90 90 91 91 90 87 85 83 82 80 79 78 77 76 77 79 81 81 81 80 78 75 72 69 67 66 67 67 69 69 69 70 72 74 76 79 80 79 75 72 71 72 74 76 78 79 80 81 82 82 82 81 80 79 78 77 75 73 72 71 71 72 75 76 74 72 71 71
90 90 91 91 91 92 94 95 97 100 104 107 108 106 103 100 97 96 95 96 95 92 87 83 80 79 79 79 79 79 79 80 80 81 81 82 82 81 78 73 70 68 68 68 69 70 71 71 73 75 75 76 78 78 76 74 72 73 75 78 79 81 81 81 81 81 80 79 78 77 76 75 73 72 71 70 69 70 72 73 72 71 70 70 69
82 83 84 86 87 87 88 90 92 94 97 101 106 109 110 109 107 105 103 101 97 94 89 83 80 79 79 80 81 81 82 82 82 80 79 79 80 81 80 77 74 73 72 72 71 71 72 73 75 76 75 75 75 75 75 75 76 78 80 81 82 82 81 80 79 78 77 76 75 73 72 70 70 69 68 67 68 70 71 70 69 69 69 69 67
74 75 77 79 81 82 82 83 85 87 90 93 96 100 103 104 105 106 106 102 96 92 89 84 81 79 80 80 81 81 81 81 81 80 77 75 75 77 79 78 76 74 73 71 70 71 71 72 73 73 73 73 74 75 77 78 80 81 83 83 82 81 79 78 77 75 73 72 71 69 68 67 67 66 65 65 67 68 67 67 67 68 68 68 67
68 68 69 71 74 75 76 78 79 80 82 85 88 90 92 94 97 100 103 100 93 89 87 85 82 82 82 80 79 79 80 80 79 79 77 73 71 72 74 74 74 74 73 71 71 71 72 72 73 74 75 77 78 79 80 82 83 83 83 82 81 79 77 75 72 70 69 68 67 65 65 65 64 63 63 64 65 65 65 65 66 66 67 67 67
60 61 62 64 66 68 69 71 73 74 76 79 81 83 84 86 89 94 99 100 96 92 89 86 83 83 84 83 81 80 80 80 79 79 78 76 75 73 72 72 72 73 72 71 71 72 73 74 75 76 78 79 80 81 82 83 83 83 82 80 78 76 73 70 68 67 67 66 65 64 63 62 61 61 62 62 62 62 63 63 64 64 65 66 67
52 53 55 57 59 61 62 64 66 68 71 73 75 77 78 79 82 88 93 97 98 96 93 90 87 85 84 84 85 85 85 84 83 81 81 81 80 79 77 75 74 73 71 71 72 74 76 77 77 78 79 79 79 80 80 80 80 79 78 76 74 72 69 67 66 65 65 64 64 62 61 60 60 61 61 60 60 61 61 62 63 63 64 66 67
45 46 48 49 51 53 56 58 60 62 64 66 68 70 72 73 75 80 86 91 94 95 94 94 91 88 86 85 87 88 89 88 87 86 85 85 84 83 82 80 78 76 75 75 77 79 80 80 80 80 80 80 79 79 78 77 75 74 72 71 69 67 66 64 64 64 64 63 62 61 59 59 59 59 59 59 59 60 60 62 63 63 64 65 67
41 41 42 43 45 46 49 51 53 55 57 59 60 61 63 65 67 71 76 82 86 89 91 93 92 90 88 86 86 88 89 90 90 90 90 89 88 87 85 84 82 80 79 80 81 82 82 81 81 81 80 79 78 76 74 72 70 69 67 66 65 64 63 62 61 62 62 61 60 59 58 58 58 58 58 58 58 59 60 61 63 64 66 67 67
37 38 38 40 41 41 43 45 46 49 51 52 53 53 54 55 57 60 64 69 74 78 82 85 86 87 87 86 86 86 87 89 91 92 92 92 91 89 87 85 83 81 80 80 81 81 81 80 80 79 78 77 75 73 70 67 65 64 62 62 61 61 60 60 60 60 60 59 58 57 56 56 56 56 56 57 58 59 61 62 63 65 67 68 69
33 34 35 36 37 37 38 39 39 42 44 45 46 46 47 48 50 52 54 57 62 66 70 73 76 78 79 80 82 83 84 85 88 90 91 90 89 87 86 85 83 81 80 79 79 78 78 77 77 76 75 73 71 68 65 62 60 58 58 58 59 59 58 58 59 59 58 57 56 55 54 54 54 55 55 57 58 59 61 62 64 66 68 69 70
30 31 32 33 33 32 32 32 33 34 35 36 38 40 41 42 44 45 47 49 52 56 59 62 65 68 70 72 75 78 80 80 81 83 83 83 83 82 82 81 80 79 78 77 75 74 74 73 72 71 69 67 64 60 57 55 54 54 55 56 56 56 56 57 57 57 56 55 54 52 52 52 53 54 55 57 58 59 61 63 65 67 69 70 71
27 28 28 27 26 26 26 26 26 27 27 29 31 33 35 37 38 40 43 45 47 49 51 53 56 59 61 64 67 70 71 71 72 73 74 74 75 75 75 74 74 74 73 71 70 68 67 65 63 61 59 56 53 51 49 49 50 51 52 53 53 53 54 54 54 54 53 52 50 49 50 51 53 54 56 57 59 60 62 65 66 68 70 71 73
24 24 22 19 18 18 18 18 19 20 21 22 24 25 27 29 31 33 36 38 39 41 43 44 46 48 50 53 55 57 58 58 59 61 62 64 65 66 66 66 66 66 65 64 62 60 59 56 54 52 50 48 46 46 46 47 47 48 49 50 51 51 51 51 51 50 49 48 47 48 50 51 53 55 57 58 60 62 64 66 68 69 71 72 74
20 19 16 14 12 11 11 12 12 13 14 15 16 18 19 21 22 24 26 27 28 30 32 34 35 36 38 40 43 45 46 48 49 50 51 52 53 55 56 56 56 55 54 54 53 52 51 49 47 46 46 45 44 44 45 45 46 47 48 48 49 49 49 49 47 47 46 46 47 48 50 52 54 56 57 59 61 63 65 67 69 71 73 74 76
17 15 12 10 9 10 10 10 10 10 11 12 14 15 17 19 20 22 23 23 23 23 25 26 28 29 30 33 35 37 39 40 40 40 41 42 43 44 45 45 45 45 45 46 46 47 47 46 46 45 46 46 45 45 46 46 47 47 48 48 48 47 46 45 44 45 45 46 47 49 51 53 55 56 58 60 62 64 66 68 70 72 74 76 78
15 13 11 9 9 10 11 11 12 13 14 16 17 19 21 22 22 23 23 23 23 24 24 25 26 28 29 31 32 33 34 34 34 34 35 35 35 36 37 38 40 41 42 43 44 45 45 45 45 46 47 48 48 47 46 46 47 46 46 45 44 43 43 43 43 44 46 47 49 51 52 54 56 58 60 62 64 66 68 70 72 74 76 78 80
15 13 12 11 11 11 12 12 14 15 16 17 18 19 20 20 21 21 22 23 24 26 27 27 28 29 29 30 31 31 31 31 31 32 32 33 33 33 34 35 38 40 42 43 44 45 46 47 47 48 49 49 48 46 45 45 44 43 42 41 41 41 41 42 44 45 47 48 50 52 54 55 57 59 61 63 65 67 69 71 73 76 78 79 82
14 13 12 12 12 11 11 11 12 14 15 16 17 18 19 20 20 21 22 23 25 26 27 27 27 27 28 29 30 29 28 28 29 30 31 32 33 34 34 35 37 39 41 43 44 45 46 47 48 48 47 46 44 42 41 40 39 38 38 38 39 40 41 43 45 47 48 50 51 53 55 57 59 61 62 65 67 69 71 73 75 77 79 82 83
13 11 10 10 10 10 11 11 13 15 16 16 17 18 19 20 20 21 21 22 23 24 25 25 26 28 29 31 31 29 27 27 28 30 31 32 33 35 36 37 38 40 41 43 44 46 46 46 45 44 42 40 38 36 35 35 35 36 37 38 39 41 43 45 47 48 50 51 53 55 57 58 60 62 64 66 69 71 73 75 76 79 81 82 80
Wind_Direction
249 247 247 248 249 251 251 252 252 253 253 253 253 254 255 256 257 258 260 261 263 265 266 266 267 268 267 267 266 266 266 266 266 266 267 268 268 269 270 271 273 275 277 277 277 277 277 276 276 275 275 274 274 274 274 275 275 274 274 274 275 275 276 276 277 278 279 279 280 281 283 285 287 288 289 291 292 292 293 293 293 293 292 292 292
251 249 248 247 246 246 248 248 249 250 252 253 253 254 255 258 259 260 261 262 263 264 265 266 268 269 269 269 269 268 267 266 265 266 266 267 268 269 270 271 272 273 274 275 275 276 275 275 274 273 273 272 272 272 272 273 273 273 274 274 275 275 276 277 278 280 283 283 283 283 285 287 289 290 291 291 292 292 293 293 293 292 292 292 292
254 252 250 249 247 245 245 246 247 247 248 249 251 253 255 258 261 262 263 264 264 264 265 267 268 269 270 270 270 270 269 268 267 266 267 268 269 270 270 271 271 272 273 273 274 275 274 273 272 272 271 271 271 271 271 271 271 271 272 272 273 275 276 278 280 282 284 286 286 285 286 287 289 290 291 291 290 290 291 291 292 292 292 292 292
258 255 253 252 251 250 249 248 248 247 247 247 249 250 253 257 260 263 264 265 266 266 266 268 269 270 270 271 271 271 270 269 268 267 267 268 269 270 271 271 271 271 272 272 273 273 272 271 270 270 270 269 269 268 268 269 269 270 271 272 274 276 278 279 281 282 284 285 286 287 286 287 288 289 289 290 290 290 290 290 291 291 291 291 291
263 260 258 255 253 252 252 252 252 251 249 249 249 250 252 255 259 263 265 267 267 267 267 268 269 269 269 270 270 270 269 269 269 268 268 268 269 270 271 272 272 271 271 272 272 272 271 270 269 269 268 268 268 268 269 270 271 272 274 275 277 279 280 281 282 283 284 285 286 287 287 287 287 288 289 290 291 291 291 291 291 291 291 292 293
265 263 262 260 257 254 253 252 253 252 251 250 249 250 252 255 258 261 265 267 268 268 267 266 266 267 267 267 267 268 268 268 268 268 267 268 268 270 271 272 272 271 271 271 271 270 269 268 268 268 268 269 270 270 271 272 274 275 277 278 279 280 281 282 283 284 285 285 286 287 287 288 289 290 291 291 290 290 290 290 290 291 292 294 296
264 263 263 263 261 258 255 253 252 251 251 251 251 251 252 254 256 258 261 264 266 268 267 266 266 266 266 266 267 267 267 267 267 267 267 267 268 270 270 271 270 270 270 269 268 267 266 265 266 267 268 269 270 272 273 274 276 277 278 279 280 281 283 284 285 286 286 286 286 287 289 290 291 290 289 288 288 288 289 289 289 291 294 297 299
263 261 261 261 262 260 258 256 254 253 253 254 254 254 255 255 256 257 258 261 263 265 265 265 265 265 266 266 267 267 267 267 268 268 269 270 271 271 271 270 270 270 270 268 267 265 264 265 266 267 269 270 272 273 274 276 277 278 279 280 281 282 284 286 286 285 285 285 286 288 290 291 290 288 286 286 288 289 290 290 290 291 295 301 303
263 261 259 259 259 259 258 257 256 256 256 257 258 258 259 259 258 258 259 260 262 263 261 261 262 263 263 265 266 267 266 267 269 270 271 272 272 272 271 271 270 270 269 268 266 264 264 265 267 269 270 272 273 274 276 277 277 278 279 280 281 283 284 284 284 284 284 285 288 289 290 289 287 285 285 286 288 289 292 294 294 293 294 299 303
262 260 258 257 258 258 257 257 257 257 258 259 261 261 261 260 260 260 260 261 262 262 259 258 259 261 262 263 265 266 266 268 269 269 270 271 272 272 270 269 269 269 268 267 265 264 265 267 269 271 272 273 274 275 276 276 277 277 278 279 280 281 282 282 283 283 284 286 288 289 288 287 286 286 286 287 288 291 295 297 297 295 295 298 302
259 258 257 257 257 257 257 257 256 257 257 258 259 260 261 261 260 260 260 260 261 261 259 258 258 260 261 263 264 266 267 269 269 269 270 271 272 272 271 269 269 268 266 265 264 265 267 270 272 272 273 273 273 274 274 275 276 277 277 278 279 279 280 281 281 282 284 286 287 287 287 287 286 286 287 287 289 293 296 298 299 299 299 300 301
259 258 257 257 257 257 257 257 256 256 256 256 257 258 259 260 260 259 258 258 260 260 258 256 257 259 262 264 265 266 268 269 269 269 269 270 271 271 272 272 269 266 265 264 264 265 268 270 271 271 271 271 271 272 273 274 275 276 276 276 277 278 279 280 280 281 283 285 285 285 285 286 287 287 287 288 288 291 294 298 300 301 301 301 301
261 259 258 257 257 257 257 258 257 257 256 256 256 256 257 258 259 258 256 257 258 259 258 257 258 260 262 265 266 268 269 268 267 267 267 268 269 270 271 271 267 264 264 264 264 266 268 269 269 269 269 269 271 272 272 272 273 273 273 274 276 277 279 279 280 281 283 283 284 284 284 285 286 286 287 286 287 289 293 297 300 300 301 301 302
262 261 259 258 257 257 257 257 257 258 257 257 256 256 256 257 258 256 255 256 258 261 261 261 262 264 265 266 268 269 268 266 265 265 265 266 267 267 268 267 265 263 264 264 265 266 267 267 266 267 268 270 271 270 270 270 270 271 272 273 275 277 278 278 279 281 282 283 283 283 283 284 284 285 286 285 286 288 292 297 299 300 301 302 303
263 262 261 259 258 258 257 257 257 258 258 258 258 258 258 259 258 256 255 256 260 263 265 266 268 269 270 270 270 270 268 266 265 264 264 264 264 265 266 264 262 261 262 264 265 266 265 265 266 268 270 270 270 269 269 268 268 269 270 271 274 276 276 277 279 282 282 283 282 282 282 282 283 284 285 285 286 288 292 296 298 299 302 303 304
263 262 262 261 260 259 258 258 258 260 260 260 260 261 261 262 262 260 259 260 262 265 268 270 271 272 272 272 272 271 269 267 265 265 264 264 265 266 265 262 260 260 262 265 266 264 263 264 267 269 271 270 268 267 266 265 266 268 269 271 273 274 274 276 279 281 282 282 282 282 282 282 284 285 286 286 287 290 293 296 297 300 303 304 305
264 264 264 264 263 262 261 260 260 261 263 263 263 263 264 266 266 265 264 264 266 268 269 271 272 272 272 271 271 270 268 266 265 265 266 266 265 265 263 260 259 260 262 263 262 262 263 265 267 268 269 268 266 264 263 262 264 267 269 271 272 271 271 274 278 280 281 282 282 283 283 284 286 287 288 290 291 292 294 296 298 301 303 304 305
264 264 265 265 266 265 265 264 263 264 264 264 264 264 265 266 267 267 267 267 268 269 270 271 272 272 272 272 271 269 267 266 266 266 265 264 263 262 260 259 259 261 261 259 258 260 264 266 267 269 269 267 264 262 261 262 264 267 269 270 270 269 270 274 278 280 282 283 284 285 286 287 288 290 291 292 293 294 295 298 300 301 302 303 304
263 263 263 265 266 267 267 266 265 265 265 264 263 263 263 264 264 265 266 267 268 269 270 271 271 271 271 270 268 267 266 266 266 265 264 262 261 260 259 259 259 261 259 257 257 261 266 268 268 270 270 267 263 261 261 262 264 266 268 269 268 269 271 275 279 281 283 284 285 286 287 289 290 291 292 293 293 295 297 299 300 300 301 303 305
262 262 263 264 265 267 267 266 264 264 264 263 263 263 263 262 262 263 263 265 266 267 268 268 268 267 267 267 267 267 266 266 265 263 261 259 257 257 259 262 262 260 256 255 259 264 268 269 269 270 270 268 265 265 266 268 269 269 268 267 268 270 273 277 281 283 284 285 286 287 288 289 289 290 292 293 294 296 298 299 299 300 302 305 307
262 262 262 262 263 264 264 264 263 263 262 260 259 259 260 260 260 261 262 263 264 266 267 266 265 265 265 265 265 265 266 266 266 263 260 258 258 259 262 264 263 259 255 257 262 266 268 269 269 269 269 268 267 268 269 271 272 270 268 267 269 271 275 279 281 283 284 285 286 287 288 288 289 291 292 294 295 296 297 298 300 302 304 307 308
262 261 261 261 261 261 261 262 262 262 261 259 257 256 256 257 258 260 261 263 264 265 266 266 266 265 264 264 264 264 264 265 265 264 262 262 261 263 265 266 264 262 260 261 265 268 269 270 271 270 268 267 267 268 269 271 273 271 269 269 272 274 277 279 281 282 283 284 285 286 287 288 289 291 292 293 294 296 298 300 302 304 306 307 308
261 261 261 260 260 259 259 261 262 262 260 258 257 257 257 258 259 260 261 262 263 264 266 267 267 266 264 263 262 262 262 262 263 263 263 262 262 263 264 264 263 263 263 264 267 269 270 271 271 270 268 267 267 268 270 271 271 270 269 271 274 276 277 279 281 282 283 284 285 286 287 288 289 291 292 294 296 298 300 302 304 305 306 307 308
259 260 260 260 260 260 260 260 261 262 261 259 258 258 260 261 261 261 261 262 262 263 265 267 268 268 266 264 262 261 261 261 262 263 263 263 264 265 264 263 262 262 263 264 267 270 272 272 271 269 268 268 267 267 268 269 269 270 272 273 275 277 278 279 281 282 283 283 284 285 286 287 289 291 293 295 298 300 302 303 304 305 305 306 307
258 259 260 260 260 260 260 260 261 261 262 261 259 259 260 262 263 262 262 262 263 263 264 265 266 267 267 266 265 263 261 261 261 262 263 264 265 265 264 263 262 261 262 264 268 272 274 273 270 268 268 268 269 270 271 271 272 273 273 274 276 277 278 280 281 281 282 282 283 284 286 288 290 292 295 298 300 302 303 303 304 304 304 306 306
259 260 262 262 261 259 258 259 260 260 260 260 260 259 260 261 262 262 262 262 263 264 264 265 264 264 265 266 266 263 261 262 263 263 263 264 264 264 263 261 259 259 262 265 269 273 274 271 269 268 269 270 271 272 273 273 273 273 274 275 277 278 279 280 280 280 280 281 283 285 287 290 291 294 296 299 301 302 303 303 302 302 303 304 304
260 261 261 262 261 260 258 257 257 258 258 258 258 258 258 258 259 260 261 261 262 263 264 263 262 262 263 263 262 261 261 263 264 265 265 265 264 263 261 260 259 260 263 266 270 272 272 271 270 271 270 269 270 272 274 275 275 276 277 278 278 279 279 280 279 279 280 282 285 287 289 291 293 294 297 299 301 301 302 301 301 301 302 303 303
260 260 260 260 259 259 258 257 256 255 256 256 256 256 257 257 258 260 261 261 261 261 262 261 259 259 259 258 258 258 258 260 262 263 264 265 265 263 261 260 260 260 263 267 269 270 270 271 272 273 271 271 271 273 274 275 276 277 278 278 278 278 278 278 279 280 282 285 288 290 290 292 293 295 297 298 299 300 299 299 299 300 301 302 301
261 259 259 258 258 257 256 256 255 254 253 253 253 254 256 257 258 260 262 263 262 261 261 260 258 257 257 258 258 259 260 260 260 260 260 261 262 261 261 260 260 261 263 267 269 270 270 270 271 271 271 271 271 271 271 273 276 278 278 277 276 277 277 278 280 283 285 288 289 290 291 292 294 295 297 298 298 298 297 296 297 299 300 300 299
262 260 258 257 257 257 255 254 254 253 253 252 251 252 254 256 257 259 262 264 263 261 259 259 259 259 259 259 259 259 260 260 261 260 260 259 259 259 260 260 260 261 263 266 268 269 269 269 270 271 272 271 270 270 271 273 274 275 275 275 275 276 278 280 282 285 287 288 289 291 292 293 294 295 296 296 296 295 295 295 296 298 299 298 297
264 262 260 258 257 256 255 254 253 252 252 251 250 251 253 255 257 259 262 263 262 258 256 255 256 259 260 261 260 259 258 258 258 259 259 258 257 258 260 260 260 261 263 265 267 268 269 270 271 271 271 270 269 269 269 269 270 271 273 274 276 277 279 281 284 285 287 289 290 291 292 293 294 294 294 294 294 293 293 294 296 297 297 296 296
266 264 262 261 259 257 256 255 254 253 251 250 250 250 251 253 255 258 260 262 260 255 251 250 252 255 258 259 258 258 257 255 255 255 257 257 257 258 259 260 259 260 262 263 265 267 269 270 269 269 268 267 266 265 264 264 267 270 273 276 277 279 280 283 285 286 288 289 290 291 292 292 293 293 292 292 292 291 292 294 295 295 295 295 296
266 266 264 263 261 259 257 256 255 254 253 251 250 250 250 252 254 256 258 259 257 251 247 246 248 251 253 254 253 253 253 253 252 252 253 254 255 255 256 255 254 256 260 262 264 266 268 269 268 266 264 263 262 261 261 263 266 270 273 275 278 280 282 284 285 286 287 288 289 289 290 290 290 290 289 289 290 291 292 293 293 294 294 295 296
266 265 265 264 262 260 258 256 255 254 254 253 252 251 250 251 252 253 254 256 253 247 244 244 245 247 248 248 248 248 249 250 251 249 248 247 248 249 250 249 250 254 260 263 265 266 267 267 265 263 260 259 258 259 260 263 265 268 272 275 277 280 282 284 284 285 285 286 286 287 288 288 288 287 286 287 289 291 292 293 293 293 294 295 296
267 265 264 263 262 260 259 257 255 254 253 252 252 251 251 251 250 249 249 250 248 244 243 244 244 244 245 245 246 246 246 247 248 247 245 244 244 245 245 246 248 253 258 261 262 263 263 262 260 259 257 257 258 259 261 263 266 269 272 275 278 281 282 282 283 282 282 283 284 285 286 285 284 284 284 287 289 290 291 292 293 294 294 295 296
270 268 265 263 262 261 259 257 256 254 253 252 251 250 250 250 248 245 244 244 244 244 245 245 244 244 245 245 245 246 246 246 247 245 243 243 245 246 245 246 248 251 254 256 257 257 257 257 257 257 258 259 260 262 264 266 269 271 274 277 279 280 281 281 280 280 280 281 282 283 283 283 282 283 285 288 289 290 291 292 293 293 294 294 296
274 271 269 266 264 261 259 258 256 255 253 252 250 249 249 248 247 245 242 241 242 244 246 246 246 246 246 247 247 247 247 247 247 246 244 244 247 249 249 248 249 251 253 254 255 256 258 258 259 260 261 263 264 266 268 270 272 275 277 279 279 280 280 279 278 277 277 278 279 281 281 281 282 284 287 288 289 290 291 292 292 292 293 295 297
277 275 272 269 266 264 261 259 257 255 254 252 251 249 248 247 247 245 243 242 243 244 245 246 247 248 249 250 251 251 249 248 248 249 248 248 249 251 251 252 252 253 254 256 258 261 263 264 265 266 267 268 269 271 272 274 275 277 278 278 278 278 278 277 276 275 275 276 278 279 280 281 283 286 287 288 290 290 291 291 291 292 294 296 298
280 277 275 272 270 267 264 261 259 257 255 254 252 251 249 248 247 246 245 244 244 245 246 247 248 250 251 252 253 253 252 251 251 252 253 253 254 255 255 255 256 257 258 260 262 265 267 268 269 270 271 271 272 273 274 275 275 276 276 276 276 276 275 274 274 273 273 275 277 278 279 281 284 286 288 288 290 290 290 290 291 293 295 296 298
281 280 278 276 273 270 266 264 261 258 256 255 254 252 251 250 248 247 246 246 246 247 248 249 250 252 253 253 253 254 253 252 252 253 255 256 257 258 259 259 260 261 262 264 265 267 268 269 271 271 271 271 272 272 273 273 273 274 273 273 273 273 272 272 272 272 273 275 276 276 278 282 285 286 287 288 289 289 289 290 292 294 296 297 298
283 282 281 279 277 273 269 265 261 258 256 255 255 253 252 251 250 248 247 247 247 248 249 249 250 252 253 253 254 254 253 252 251 252 253 255 257 259 260 262 263 264 264 265 265 266 267 268 269 270 270 270 270 270 271 270 270 270 270 269 269 269 270 270 271 272 273 273 273 275 279 282 284 285 287 287 288 289 290 292 294 295 297 298 299
287 286 284 282 278 275 271 266 262 258 256 255 254 253 252 251 250 249 248 247 247 248 249 250 250 251 251 252 252 252 253 253 252 252 253 254 256 257 259 261 263 263 264 264 265 265 266 267 267 268 268 268 269 269 269 268 268 267 266 266 266 267 267 268 270 271 272 271 272 276 280 282 284 285 286 286 287 289 291 293 295 296 298 299 300
292 290 288 284 280 276 271 265 261 257 255 253 253 253 252 251 250 249 248 247 246 246 247 247 248 249 249 249 249 250 252 253 253 253 254 255 256 257 258 259 260 261 262 263 263 264 264 265 265 265 266 266 266 267 266 265 265 264 264 264 265 266 267 268 270 270 270 270 273 277 280 282 283 284 285 286 288 290 292 294 295 297 298 299 300
297 294 291 286 281 275 269 263 258 255 253 252 253 253 253 252 251 250 249 248 246 246 245 245 245 245 246 247 248 249 250 250 251 251 252 253 254 255 256 256 257 258 259 260 260 260 260 260 260 260 261 261 261 261 261 261 261 262 263 264 265 266 267 268 269 269 270 272 276 279 280 282 283 284 285 287 289 291 293 295 296 298 299 300 301
303 299 296 291 284 277 269 263 259 257 256 255 255 254 253 251 249 248 248 247 246 245 245 244 243 243 244 245 245 245 245 245 246 247 248 249 251 252 253 253 254 255 255 255 255 254 254 254 254 254 255 255 256 256 257 259 260 262 263 264 265 266 267 267 268 269 271 274 277 279 281 282 283 284 286 288 290 292 294 295 297 299 299 300 301
312 306 303 302 299 293 285 277 270 265 261 258 256 253 251 247 243 241 242 243 243 243 242 242 242 241 242 242 242 240 240 240 242 243 245 246 247 249 250 251 251 251 251 250 249 248 248 248 249 249 250 252 254 256 257 259 260 262 263 263 264 264 265 266 268 271 274 276 278 280 281 283 284 285 288 290 291 293 295 296 298 299 300 300 301
324 316 308 302 296 288 281 274 265 257 253 249 247 245 243 240 236 235 236 237 237 238 238 238 237 236 237 238 239 238 238 238 239 240 241 242 244 246 247 246 246 245 244 244 244 243 244 246 247 248 250 252 255 257 258 259 260 261 261 262 262 263 265 267 270 273 275 277 279 281 282 284 285 287 289 291 292 294 296 297 299 300 300 301 302
335 327 316 301 287 277 268 259 252 248 246 244 241 240 240 238 236 235 236 236 237 238 238 237 236 234 234 235 237 237 237 237 237 238 238 239 242 244 244 242 240 239 239 240 241 242 244 246 249 251 251 252 254 255 257 258 258 259 259 260 262 264 267 270 272 275 277 279 280 282 283 285 287 288 290 291 293 295 296 298 299 299 300 301 303
334 327 317 304 292 282 274 266 260 255 252 249 248 247 246 245 243 241 240 238 238 239 240 240 240 239 237 237 237 238 238 238 238 238 238 239 242 244 244 243 240 239 239 240 242 244 246 249 250 251 250 250 251 253 254 255 256 257 258 261 264 267 270 272 275 277 279 280 281 283 285 286 288 289 291 292 294 296 297 298 299 300 301 302 304
336 326 316 307 298 290 282 275 269 262 257 253 251 249 247 246 245 245 244 243 242 242 243 243 242 241 241 240 239 239 240 241 242 241 240 240 242 245 246 246 244 244 244 245 246 248 249 250 250 249 247 247 248 250 251 253 255 257 260 263 266 269 272 274 276 278 279 281 283 285 286 288 289 290 292 294 295 297 298 298 299 300 302 304 305
349 339 325 312 300 289 279 272 267 265 263 260 256 253 252 251 250 249 248 247 246 245 244 243 242 243 244 244 241 239 240 242 245 245 244 242 244 247 249 249 248 248 248 249 250 250 250 248 246 244 243 244 245 248 250 253 257 260 263 266 269 272 274 275 277 279 280 282 284 286 287 288 290 292 294 295 297 297 298 299 300 302 304 305 306
Height
5638 5637 5637 5639 5640 5641 5641 5642 5642 5642 5643 5643 5644 5643 5643 5643 5643 5643 5643 5644 5644 5644 5644 5644 5644 5643 5643 5643 5644 5644 5644 5645 5645 5645 5646 5646 5645 5645 5645 5645 5645 5644 5644 5644 5644 5644 5644 5643 5643 5642 5642 5642 5642 5642 5642 5643 5643 5644 5644 5644 5644 5644 5643 5642 5640 5636 5636 5637 5637 5635 5632 5630 5628 5628 5629 5628 5627 5626 5626 5626 5626 5625 5624 5623 5622
5631 5630 5630 5631 5632 5631 5630 5631 5632 5633 5635 5635 5636 5635 5634 5634 5634 5634 5635 5636 5636 5636 5636 5635 5634 5634 5634 5634 5634 5634 5635 5635 5636 5637 5638 5638 5637 5636 5636 5637 5637 5636 5635 5635 5635 5635 5635 5635 5634 5634 5634 5634 5634 5634 5634 5634 5635 5635 5634 5634 5634 5634 5634 5633 5631 5629 5626 5626 5627 5627 5625 5622 5619 5618 5619 5620 5619 5618 5617 5616 5616 5616 5615 5614 5613
5624 5624 5624 5625 5624 5622 5622 5622 5622 5623 5625 5626 5626 5626 5625 5624 5624 5625 5626 5626 5627 5627 5627 5626 5625 5625 5625 5625 5625 5625 5625 5625 5626 5627 5628 5628 5628 5627 5627 5628 5628 5628 5627 5627 5627 5627 5627 5626 5626 5626 5626 5626 5626 5626 5626 5626 5626 5626 5625 5625 5624 5624 5624 5623 5623 5622 5619 5617 5617 5618 5618 5615 5612 5610 5610 5611 5611 5610 5610 5609 5608 5607 5606 5605 5605
5616 5616 5617 5617 5617 5616 5617 5616 5615 5615 5615 5615 5615 5615 5614 5614 5615 5616 5617 5618 5618 5618 5617 5617 5616 5617 5617 5617 5616 5615 5615 5615 5616 5617 5619 5619 5619 5619 5618 5618 5619 5619 5619 5619 5619 5619 5619 5618 5617 5617 5618 5618 5618 5617 5617 5618 5617 5617 5616 5616 5615 5615 5615 5615 5614 5614 5613 5610 5608 5608 5609 5607 5605 5602 5602 5602 5602 5601 5601 5601 5600 5599 5599 5598 5597
5607 5607 5607 5608 5608 5608 5609 5608 5608 5609 5609 5607 5607 5606 5606 5606 5608 5609 5609 5610 5610 5610 5609 5609 5609 5609 5610 5609 5608 5607 5606 5606 5607 5608 5609 5610 5610 5610 5610 5610 5610 5611 5611 5611 5611 5611 5611 5610 5609 5609 5609 5609 5609 5609 5609 5609 5609 5608 5608 5607 5607 5606 5606 5606 5606 5605 5605 5603 5601 5600 5599 5599 5597 5595 5594 5594 5594 5593 5593 5593 5593 5592 5591 5590 5589
5596 5598 5598 5598 5599 5600 5599 5598 5598 5599 5599 5599 5599 5598 5598 5599 5600 5601 5601 5601 5602 5602 5602 5602 5602 5602 5603 5602 5601 5600 5599 5599 5599 5600 5601 5602 5602 5602 5602 5602 5602 5602 5603 5603 5603 5603 5602 5601 5600 5600 5601 5601 5601 5601 5601 5601 5601 5600 5600 5599 5598 5598 5597 5597 5597 5597 5596 5595 5594 5592 5591 5590 5589 5588 5586 5586 5586 5586 5586 5587 5586 5584 5583 5582 5580
5583 5585 5587 5588 5589 5591 5590 5589 5588 5588 5588 5589 5589 5589 5589 5590 5591 5592 5592 5592 5592 5593 5593 5593 5593 5593 5593 5593 5593 5592 5591 5590 5591 5592 5593 5593 5594 5594 5594 5594 5593 5594 5594 5595 5594 5594 5593 5593 5592 5592 5593 5593 5592 5592 5592 5592 5592 5592 5591 5591 5590 5589 5588 5588 5588 5587 5587 5587 5585 5584 5583 5582 5581 5580 5579 5578 5579 5579 5579 5580 5579 5577 5575 5573 5572
5571 5572 5573 5575 5577 5579 5579 5579 5579 5579 5580 5580 5580 5581 5580 5580 5580 5581 5581 5582 5583 5582 5582 5582 5582 5583 5583 5584 5583 5582 5581 5581 5581 5583 5583 5584 5585 5585 5585 5585 5585 5585 5586 5586 5586 5585 5585 5584 5583 5584 5584 5584 5584 5584 5584 5583 5583 5583 5582 5582 5581 5580 5579 5579 5579 5578 5578 5578 5577 5576 5575 5574 5573 5572 5572 5571 5572 5571 5570 5570 5571 5569 5567 5565 5562
5560 5560 5561 5561 5563 5565 5567 5568 5569 5569 5570 5570 5571 5571 5571 5570 5570 5570 5571 5572 5572 5572 5571 5571 5571 5573 5574 5574 5573 5572 5572 5572 5573 5573 5573 5574 5575 5576 5577 5577 5577 5578 5577 5577 5577 5577 5576 5576 5575 5575 5575 5575 5575 5575 5575 5575 5574 5573 5573 5573 5572 5572 5571 5570 5570 5569 5569 5569 5568 5567 5567 5566 5565 5564 5563 5563 5563 5563 5561 5561 5561 5560 5558 5557 5553
5548 5549 5549 5549 5550 5551 5553 5555 5556 5557 5558 5558 5559 5559 5559 5559 5559 5560 5561 5561 5561 5560 5560 5560 5561 5563 5564 5563 5563 5563 5563 5564 5564 5564 5563 5564 5565 5566 5568 5569 5569 5569 5569 5568 5568 5568 5567 5567 5566 5566 5566 5566 5566 5566 5566 5565 5564 5564 5564 5564 5563 5563 5562 5561 5560 5560 5561 5560 5559 5559 5558 5558 5556 5555 5554 5554 5554 5553 5552 5551 5551 5549 5548 5547 5546
5537 5537 5538 5538 5538 5539 5540 5541 5542 5543 5544 5545 5546 5546 5546 5546 5547 5548 5549 5550 5550 5549 5549 5550 5551 5552 5552 5552 5553 5553 5554 5554 5554 5554 5553 5554 5554 5556 5558 5559 5560 5560 5560 5560 5559 5558 5558 5558 5557 5557 5557 5557 5557 5557 5557 5556 5555 5555 5555 5554 5554 5553 5553 5552 5551 5552 5552 5552 5551 5550 5549 5549 5548 5546 5545 5545 5544 5543 5542 5541 5540 5539 5537 5536 5536
5525 5525 5526 5526 5526 5526 5526 5528 5528 5529 5530 5531 5532 5533 5533 5533 5535 5536 5537 5538 5538 5538 5539 5540 5540 5541 5541 5542 5542 5543 5544 5544 5544 5544 5543 5543 5544 5545 5546 5548 5549 5550 5550 5550 5550 5549 5549 5548 5548 5548 5547 5547 5548 5548 5547 5546 5546 5546 5546 5545 5545 5544 5544 5543 5542 5543 5543 5543 5543 5541 5540 5540 5538 5536 5535 5534 5534 5533 5531 5530 5529 5527 5526 5523 5523
5512 5513 5513 5514 5514 5514 5513 5514 5514 5515 5516 5518 5519 5519 5520 5521 5522 5523 5524 5526 5526 5527 5528 5529 5529 5530 5530 5531 5532 5532 5533 5533 5533 5533 5533 5534 5534 5534 5535 5537 5539 5540 5540 5540 5540 5539 5539 5539 5539 5538 5538 5538 5538 5538 5538 5537 5537 5537 5537 5537 5537 5536 5535 5534 5534 5534 5534 5534 5534 5532 5530 5530 5528 5526 5524 5523 5524 5523 5521 5520 5517 5515 5514 5512 5510
5500 5500 5501 5501 5501 5502 5502 5502 5502 5502 5503 5505 5506 5507 5508 5509 5509 5510 5511 5513 5514 5516 5516 5517 5518 5519 5520 5520 5521 5521 5522 5522 5523 5524 5524 5524 5524 5525 5526 5527 5529 5530 5530 5530 5530 5530 5530 5530 5529 5529 5529 5529 5529 5528 5528 5528 5528 5528 5528 5529 5528 5527 5526 5526 5525 5525 5524 5524 5524 5522 5520 5519 5517 5516 5514 5513 5513 5512 5511 5510 5507 5504 5503 5501 5497
5487 5487 5487 5488 5488 5489 5490 5491 5491 5491 5491 5493 5494 5495 5496 5496 5496 5497 5498 5500 5501 5502 5503 5504 5505 5507 5508 5509 5510 5511 5512 5513 5513 5514 5514 5514 5515 5515 5517 5518 5520 5520 5520 5520 5520 5521 5521 5520 5520 5520 5519 5519 5519 5519 5519 5520 5520 5520 5520 5520 5519 5518 5517 5517 5516 5516 5515 5514 5514 5513 5510 5508 5507 5506 5504 5502 5502 5501 5500 5498 5495 5492 5492 5490 5486
5473 5473 5474 5475 5475 5476 5477 5479 5479 5479 5480 5481 5482 5483 5483 5484 5484 5485 5486 5487 5488 5489 5491 5492 5493 5494 5496 5498 5499 5501 5503 5503 5503 5504 5504 5504 5505 5506 5507 5508 5509 5509 5510 5511 5511 5511 5511 5510 5510 5510 5510 5510 5510 5509 5510 5510 5511 5511 5511 5511 5510 5509 5508 5507 5507 5506 5505 5505 5504 5503 5501 5499 5497 5496 5493 5492 5490 5490 5489 5487 5482 5480 5479 5478 5476
5459 5460 5460 5461 5461 5463 5464 5466 5467 5468 5468 5469 5470 5471 5471 5472 5473 5473 5474 5476 5477 5478 5479 5480 5481 5483 5485 5486 5488 5490 5492 5492 5494 5495 5494 5494 5495 5497 5498 5498 5499 5500 5500 5501 5501 5501 5500 5500 5500 5500 5501 5500 5500 5499 5500 5501 5501 5501 5502 5501 5501 5500 5498 5498 5498 5496 5496 5495 5494 5492 5491 5489 5487 5485 5483 5480 5478 5477 5477 5475 5471 5468 5466 5464 5463
5446 5447 5448 5448 5448 5449 5450 5452 5454 5456 5457 5457 5458 5459 5460 5460 5461 5462 5462 5464 5465 5467 5468 5469 5471 5472 5474 5476 5478 5479 5481 5483 5484 5485 5484 5484 5486 5488 5489 5488 5489 5490 5491 5491 5490 5490 5490 5490 5491 5491 5491 5490 5489 5489 5491 5491 5491 5491 5492 5492 5492 5490 5489 5488 5488 5487 5486 5485 5484 5482 5481 5479 5477 5475 5472 5469 5466 5464 5464 5462 5460 5456 5453 5450 5448
5433 5434 5435 5436 5436 5436 5437 5438 5441 5443 5445 5446 5446 5447 5448 5449 5450 5451 5451 5452 5454 5456 5457 5459 5460 5462 5463 5465 5467 5469 5472 5473 5473 5473 5474 5474 5477 5479 5479 5478 5479 5481 5481 5480 5479 5479 5480 5481 5482 5482 5482 5481 5480 5480 5481 5481 5481 5481 5482 5482 5481 5480 5480 5480 5479 5477 5476 5475 5474 5472 5470 5468 5467 5464 5461 5458 5454 5452 5450 5448 5447 5444 5441 5438 5433
5419 5420 5422 5424 5423 5423 5424 5425 5427 5429 5431 5433 5434 5435 5436 5438 5439 5440 5441 5443 5444 5446 5448 5449 5451 5452 5453 5455 5457 5459 5462 5463 5462 5462 5463 5464 5467 5470 5469 5468 5470 5471 5470 5470 5469 5469 5471 5472 5472 5473 5472 5471 5472 5473 5474 5474 5472 5471 5472 5472 5472 5471 5471 5470 5469 5467 5466 5465 5463 5461 5459 5458 5456 5453 5450 5447 5443 5440 5437 5434 5433 5431 5427 5425 5420
5404 5406 5408 5410 5410 5410 5410 5411 5413 5415 5417 5420 5422 5423 5424 5426 5427 5428 5430 5432 5434 5435 5437 5438 5440 5442 5443 5444 5447 5449 5451 5452 5452 5452 5453 5454 5458 5461 5461 5460 5461 5461 5460 5459 5460 5460 5461 5462 5463 5463 5463 5463 5464 5464 5464 5465 5464 5463 5463 5462 5462 5462 5462 5461 5459 5457 5456 5454 5452 5451 5449 5447 5445 5442 5439 5436 5432 5428 5425 5422 5419 5417 5413 5410 5407
5390 5392 5394 5396 5396 5396 5397 5398 5400 5402 5403 5405 5408 5410 5412 5413 5415 5417 5418 5420 5423 5424 5425 5427 5429 5430 5431 5433 5435 5438 5441 5442 5442 5442 5443 5445 5448 5452 5452 5450 5451 5451 5450 5450 5451 5452 5452 5453 5453 5454 5453 5453 5454 5454 5453 5454 5455 5455 5454 5453 5453 5453 5453 5451 5448 5446 5446 5444 5442 5440 5438 5437 5435 5431 5428 5425 5421 5417 5414 5411 5407 5404 5400 5397 5393
5377 5379 5381 5382 5383 5383 5384 5385 5387 5389 5391 5392 5393 5396 5398 5400 5402 5405 5407 5409 5411 5413 5414 5415 5417 5419 5420 5422 5424 5426 5429 5431 5431 5432 5433 5434 5438 5442 5443 5441 5441 5440 5439 5440 5441 5442 5443 5443 5444 5444 5444 5444 5444 5443 5443 5443 5445 5446 5446 5444 5443 5444 5443 5440 5438 5436 5435 5434 5432 5430 5428 5426 5425 5421 5417 5415 5411 5407 5403 5400 5396 5391 5388 5385 5381
5362 5365 5367 5369 5370 5370 5371 5372 5374 5376 5377 5379 5381 5383 5385 5387 5390 5392 5395 5398 5401 5402 5404 5404 5406 5408 5409 5411 5413 5415 5417 5419 5420 5420 5422 5423 5427 5432 5433 5431 5430 5431 5430 5430 5432 5432 5433 5434 5434 5434 5434 5434 5433 5432 5433 5434 5435 5436 5436 5435 5434 5434 5432 5430 5429 5427 5425 5423 5422 5419 5417 5416 5414 5410 5407 5404 5400 5396 5393 5389 5385 5381 5377 5375 5372
5347 5350 5352 5355 5357 5358 5359 5360 5361 5363 5364 5366 5368 5371 5373 5375 5378 5380 5383 5386 5389 5391 5393 5394 5395 5397 5398 5400 5402 5403 5405 5407 5408 5409 5411 5412 5415 5421 5423 5421 5420 5420 5420 5420 5422 5422 5423 5424 5423 5423 5424 5424 5423 5423 5424 5425 5425 5426 5425 5425 5425 5423 5422 5421 5419 5418 5416 5414 5412 5409 5406 5405 5403 5399 5397 5394 5389 5385 5382 5379 5374 5370 5367 5365 5363
5332 5334 5336 5339 5342 5344 5346 5348 5349 5349 5351 5353 5356 5358 5361 5363 5366 5368 5371 5374 5377 5379 5381 5382 5384 5386 5388 5390 5391 5392 5393 5395 5396 5397 5400 5401 5404 5409 5411 5411 5410 5410 5409 5410 5411 5412 5413 5414 5413 5413 5414 5415 5415 5415 5415 5415 5415 5415 5415 5415 5414 5413 5412 5411 5409 5407 5406 5404 5402 5399 5396 5393 5391 5388 5386 5383 5378 5374 5371 5369 5365 5361 5357 5355 5354
5314 5318 5320 5321 5324 5328 5330 5333 5336 5336 5338 5340 5342 5345 5348 5350 5353 5356 5360 5363 5365 5367 5369 5371 5373 5376 5378 5379 5380 5381 5382 5384 5386 5387 5389 5391 5393 5396 5400 5401 5401 5400 5399 5400 5401 5401 5401 5402 5402 5403 5405 5406 5406 5406 5405 5405 5405 5405 5405 5404 5404 5403 5401 5400 5399 5397 5396 5394 5391 5388 5385 5383 5380 5377 5374 5371 5366 5362 5359 5357 5355 5352 5348 5346 5345
5294 5298 5302 5303 5305 5309 5313 5317 5321 5323 5325 5326 5328 5332 5335 5337 5340 5344 5348 5351 5353 5355 5358 5360 5363 5365 5367 5368 5369 5370 5372 5375 5378 5378 5379 5380 5380 5383 5387 5390 5391 5391 5390 5390 5391 5391 5391 5391 5391 5392 5394 5396 5396 5396 5395 5395 5396 5395 5395 5394 5393 5392 5391 5389 5388 5387 5385 5383 5380 5377 5374 5372 5369 5366 5363 5359 5355 5351 5348 5345 5343 5341 5338 5335 5334
5273 5277 5282 5285 5287 5291 5294 5299 5304 5307 5310 5313 5315 5318 5321 5323 5326 5332 5335 5338 5341 5343 5345 5348 5351 5353 5354 5356 5358 5360 5363 5365 5367 5366 5367 5369 5370 5372 5376 5378 5380 5381 5380 5379 5380 5381 5381 5381 5382 5383 5385 5385 5385 5385 5385 5385 5385 5384 5383 5382 5382 5381 5380 5378 5377 5376 5374 5371 5369 5366 5363 5361 5358 5355 5352 5349 5344 5340 5337 5334 5331 5330 5327 5324 5322
5253 5258 5263 5266 5269 5272 5275 5281 5286 5290 5294 5298 5300 5303 5306 5309 5313 5318 5322 5325 5327 5330 5332 5335 5337 5339 5341 5344 5348 5350 5352 5354 5354 5354 5356 5359 5360 5362 5364 5366 5368 5370 5371 5370 5370 5371 5372 5373 5373 5375 5375 5375 5374 5374 5374 5374 5374 5372 5372 5371 5370 5369 5368 5367 5366 5364 5362 5360 5358 5355 5353 5350 5347 5344 5341 5338 5334 5330 5326 5323 5320 5318 5316 5314 5312
5234 5240 5245 5248 5251 5254 5257 5262 5268 5272 5277 5282 5285 5289 5292 5295 5299 5303 5308 5311 5314 5317 5320 5322 5324 5326 5330 5333 5336 5338 5341 5342 5343 5343 5345 5347 5348 5349 5351 5354 5357 5359 5360 5360 5360 5361 5363 5364 5365 5366 5365 5364 5364 5364 5363 5363 5362 5362 5361 5360 5359 5357 5356 5356 5354 5352 5350 5349 5346 5344 5341 5339 5336 5333 5331 5328 5325 5321 5316 5313 5310 5308 5306 5303 5301
5215 5222 5227 5230 5233 5237 5240 5245 5250 5254 5259 5265 5270 5274 5278 5281 5285 5289 5293 5297 5301 5305 5307 5309 5312 5315 5319 5321 5324 5327 5329 5331 5332 5332 5332 5334 5336 5337 5339 5342 5345 5347 5349 5351 5351 5351 5353 5355 5356 5356 5355 5354 5354 5353 5353 5353 5352 5352 5350 5349 5348 5346 5345 5345 5343 5341 5338 5337 5334 5332 5330 5328 5325 5323 5320 5317 5315 5311 5307 5304 5301 5298 5296 5294 5291
5200 5205 5210 5212 5215 5220 5224 5228 5233 5237 5241 5246 5251 5256 5261 5266 5271 5276 5278 5282 5287 5292 5295 5298 5300 5303 5307 5310 5312 5315 5317 5319 5320 5322 5321 5322 5323 5324 5326 5329 5333 5336 5339 5342 5342 5342 5343 5345 5346 5345 5344 5343 5343 5343 5343 5343 5342 5341 5339 5338 5337 5335 5334 5333 5331 5329 5327 5325 5323 5320 5318 5317 5315 5313 5311 5308 5305 5302 5299 5295 5292 5288 5286 5284 5283
5185 5189 5193 5194 5197 5202 5206 5211 5215 5220 5223 5227 5231 5237 5243 5249 5255 5260 5264 5268 5272 5278 5283 5286 5287 5290 5294 5297 5300 5303 5305 5307 5309 5311 5311 5311 5312 5313 5314 5316 5321 5325 5330 5332 5333 5333 5333 5334 5334 5334 5333 5333 5333 5333 5332 5332 5331 5330 5328 5327 5326 5324 5323 5322 5320 5318 5316 5314 5312 5310 5308 5306 5304 5303 5301 5299 5295 5293 5290 5286 5282 5280 5276 5274 5273
5172 5175 5177 5178 5180 5184 5189 5193 5197 5201 5205 5209 5213 5218 5224 5230 5236 5242 5248 5253 5258 5263 5268 5272 5274 5276 5280 5284 5287 5291 5293 5296 5298 5300 5300 5300 5301 5300 5301 5305 5311 5316 5321 5324 5324 5324 5323 5323 5323 5323 5323 5322 5322 5322 5322 5321 5320 5319 5317 5316 5315 5313 5312 5311 5309 5307 5306 5304 5302 5300 5298 5296 5295 5293 5292 5290 5286 5283 5281 5278 5273 5270 5267 5264 5263
5159 5161 5163 5164 5165 5169 5173 5177 5180 5185 5188 5192 5196 5200 5206 5213 5218 5224 5231 5237 5243 5248 5253 5257 5260 5262 5265 5271 5275 5279 5282 5285 5287 5289 5289 5289 5289 5288 5291 5298 5303 5306 5311 5314 5315 5313 5311 5311 5311 5312 5312 5312 5312 5312 5311 5310 5309 5307 5306 5305 5304 5302 5301 5300 5298 5296 5295 5294 5292 5291 5289 5287 5285 5284 5282 5280 5277 5274 5272 5269 5265 5262 5258 5255 5253
5149 5149 5151 5151 5152 5155 5159 5162 5165 5169 5172 5176 5180 5185 5191 5197 5202 5208 5215 5221 5228 5234 5238 5242 5246 5249 5252 5258 5263 5266 5269 5273 5275 5276 5278 5278 5278 5279 5283 5289 5293 5296 5301 5304 5303 5300 5299 5299 5299 5300 5300 5301 5301 5300 5300 5299 5297 5296 5295 5294 5293 5292 5290 5289 5288 5286 5285 5284 5282 5281 5280 5277 5276 5274 5272 5270 5268 5265 5262 5260 5257 5254 5250 5246 5243
5139 5139 5139 5140 5141 5143 5146 5149 5152 5155 5158 5161 5166 5171 5177 5182 5187 5192 5199 5205 5212 5217 5222 5226 5231 5236 5241 5246 5248 5251 5254 5258 5262 5264 5267 5268 5269 5271 5275 5279 5283 5286 5290 5291 5290 5287 5286 5286 5288 5289 5289 5289 5289 5288 5288 5287 5286 5285 5284 5282 5281 5280 5279 5278 5278 5277 5275 5274 5273 5271 5270 5268 5266 5265 5263 5261 5259 5257 5254 5251 5248 5246 5243 5239 5234
5131 5130 5130 5130 5131 5133 5135 5137 5140 5143 5146 5149 5153 5158 5163 5169 5173 5178 5183 5189 5195 5201 5207 5211 5216 5223 5228 5231 5233 5236 5241 5245 5250 5253 5255 5256 5258 5261 5264 5269 5272 5275 5277 5277 5275 5274 5273 5274 5276 5277 5277 5277 5277 5276 5276 5275 5274 5274 5273 5271 5270 5269 5268 5268 5268 5267 5266 5265 5263 5262 5261 5260 5257 5256 5254 5252 5251 5249 5247 5244 5240 5237 5234 5232 5227
5124 5123 5123 5123 5123 5124 5126 5127 5130 5132 5135 5138 5142 5147 5151 5156 5160 5164 5169 5175 5181 5187 5192 5197 5203 5209 5213 5216 5218 5223 5228 5234 5238 5241 5242 5243 5246 5249 5253 5257 5261 5263 5264 5263 5261 5260 5261 5263 5264 5265 5265 5265 5265 5264 5264 5264 5263 5263 5262 5261 5260 5259 5259 5259 5259 5258 5257 5256 5255 5254 5252 5251 5249 5248 5246 5244 5243 5241 5239 5236 5232 5228 5225 5222 5219
5117 5117 5116 5116 5115 5116 5117 5118 5120 5123 5125 5129 5133 5137 5141 5145 5148 5152 5157 5162 5168 5173 5178 5184 5190 5195 5199 5202 5205 5209 5214 5220 5225 5229 5231 5233 5236 5238 5241 5244 5247 5249 5249 5248 5247 5248 5251 5252 5252 5253 5253 5253 5253 5253 5253 5253 5253 5253 5252 5252 5251 5250 5250 5250 5250 5249 5249 5248 5246 5245 5244 5243 5241 5240 5238 5236 5235 5233 5230 5227 5224 5220 5216 5213 5209
5111 5111 5110 5109 5109 5109 5110 5111 5113 5114 5117 5121 5125 5128 5132 5135 5138 5142 5147 5152 5157 5162 5166 5172 5178 5182 5186 5190 5193 5196 5200 5206 5211 5216 5219 5222 5224 5226 5228 5231 5234 5235 5234 5234 5235 5237 5239 5240 5241 5242 5242 5242 5242 5243 5243 5244 5244 5244 5244 5243 5243 5242 5242 5242 5242 5241 5240 5239 5238 5237 5236 5235 5233 5232 5230 5228 5227 5225 5222 5219 5216 5212 5208 5205 5201
5105 5105 5105 5104 5103 5104 5104 5105 5107 5109 5111 5115 5118 5121 5124 5128 5131 5135 5139 5143 5147 5152 5156 5161 5166 5170 5175 5178 5180 5184 5190 5196 5200 5203 5206 5208 5210 5213 5215 5218 5220 5222 5222 5223 5225 5227 5228 5229 5230 5231 5232 5232 5233 5234 5235 5235 5236 5236 5236 5235 5235 5235 5234 5234 5234 5233 5233 5232 5231 5230 5229 5227 5225 5224 5222 5220 5218 5216 5214 5211 5208 5204 5200 5196 5193
5101 5101 5100 5099 5099 5099 5100 5101 5103 5105 5107 5110 5113 5116 5119 5123 5126 5129 5133 5136 5140 5144 5148 5153 5157 5161 5164 5167 5170 5175 5181 5186 5188 5190 5192 5195 5198 5201 5203 5205 5208 5210 5212 5214 5215 5216 5218 5220 5221 5222 5223 5224 5225 5225 5226 5227 5227 5227 5227 5227 5227 5226 5226 5226 5226 5225 5225 5225 5224 5223 5222 5220 5218 5216 5214 5212 5210 5208 5205 5202 5199 5196 5192 5188 5185
5098 5097 5097 5096 5096 5096 5097 5099 5100 5103 5105 5108 5111 5113 5116 5119 5122 5125 5128 5132 5135 5138 5142 5146 5149 5153 5156 5159 5162 5166 5171 5174 5176 5179 5182 5184 5187 5189 5192 5194 5197 5199 5202 5204 5205 5207 5209 5211 5212 5213 5215 5215 5216 5217 5218 5218 5219 5219 5219 5219 5219 5219 5218 5218 5218 5218 5218 5218 5217 5216 5214 5213 5211 5208 5206 5205 5202 5199 5197 5194 5190 5187 5184 5181 5177
5097 5096 5095 5095 5095 5096 5097 5098 5100 5102 5104 5106 5109 5112 5114 5117 5120 5123 5125 5128 5131 5134 5137 5141 5144 5147 5150 5152 5155 5158 5162 5165 5168 5171 5173 5175 5178 5180 5182 5185 5188 5190 5193 5195 5197 5199 5201 5203 5205 5206 5207 5208 5209 5209 5210 5210 5211 5211 5211 5211 5211 5211 5211 5211 5211 5211 5211 5211 5210 5209 5207 5206 5203 5201 5199 5197 5194 5191 5188 5185 5182 5178 5175 5172 5168
5097 5096 5096 5096 5096 5097 5098 5099 5100 5102 5104 5106 5109 5111 5114 5116 5119 5121 5124 5126 5129 5132 5134 5137 5139 5142 5144 5147 5149 5152 5155 5158 5161 5164 5166 5168 5171 5173 5175 5178 5180 5182 5185 5187 5189 5192 5194 5196 5198 5199 5200 5201 5201 5202 5202 5203 5204 5204 5204 5204 5204 5205 5205 5205 5205 5204 5204 5204 5203 5202 5200 5198 5196 5194 5191 5189 5186 5184 5180 5177 5174 5170 5166 5163 5159
5098 5097 5097 5098 5098 5099 5100 5101 5102 5103 5105 5107 5109 5111 5113 5115 5117 5119 5122 5124 5127 5129 5131 5133 5135 5137 5140 5142 5145 5147 5150 5153 5155 5158 5160 5163 5165 5167 5169 5171 5173 5176 5178 5181 5183 5185 5187 5189 5191 5192 5193 5194 5194 5194 5195 5196 5197 5197 5198 5198 5198 5198 5199 5199 5198 5198 5198 5197 5196 5194 5193 5191 5188 5186 5184 5181 5178 5176 5172 5169 5166 5162 5158 5154 5150
5099 5099 5099 5099 5099 5100 5101 5101 5102 5103 5105 5106 5108 5110 5112 5114 5116 5118 5120 5122 5124 5126 5128 5130 5132 5134 5136 5138 5141 5143 5146 5148 5151 5153 5156 5158 5160 5162 5164 5166 5168 5170 5173 5175 5177 5179 5181 5183 5184 5185 5186 5186 5187 5188 5188 5189 5190 5191 5191 5192 5192 5193 5192 5192 5192 5191 5191 5190 5189 5187 5185 5183 5181 5178 5176 5174 5171 5168 5164 5161 5158 5154 5149 5145 5141
5100 5100 5100 5100 5100 5101 5101 5102 5103 5103 5105 5106 5107 5109 5110 5112 5114 5116 5117 5119 5121 5123 5125 5127 5129 5131 5133 5135 5138 5140 5143 5145 5147 5149 5151 5153 5155 5157 5159 5161 5163 5165 5167 5169 5171 5173 5175 5176 5177 5178 5179 5179 5180 5181 5182 5183 5184 5185 5186 5186 5186 5187 5186 5186 5185 5185 5184 5184 5182 5180 5178 5176 5173 5171 5169 5166 5163 5160 5156 5152 5149 5145 5141 5136 5132
5101 5100 5100 5100 5101 5101 5102 5102 5103 5104 5104 5105 5106 5107 5109 5110 5112 5113 5115 5117 5118 5120 5122 5124 5126 5128 5130 5132 5134 5137 5139 5141 5143 5145 5147 5149 5151 5152 5154 5156 5158 5160 5162 5163 5165 5167 5168 5169 5170 5171 5172 5173 5175 5176 5177 5178 5178 5179 5180 5180 5180 5180 5180 5180 5179 5178 5177 5176 5174 5172 5170 5168 5165 5163 5161 5158 5154 5151 5148 5144 5140 5136 5131 5127 5122